Multibeam Report for MV0902


Ship Name: Melville
Chief Scientist: Lee, Craig
University of Washington
Source Organization: Rolling Deck to Repository
Start Date: 2009-02-06
End Date: 2009-02-23


View ISO Metadata

Visit the full NCEI Bathymetry Viewer


Multibeam Bathymetry

Cruise Details

Project: High-resolution Towed Body Surveys of Submesoscale Variability in the Philippine Archipelago
Instrument: Kongsberg EM120

Data Quality

Number of Files: 202
Number of Records: 780521
BATHYMETRY DATA Quantity Percentage
Number of Beams 149071680 100%
Number of Good Beams 139776437 93.76%
Number of Zero Beams 9295243 6.24%
Number of Flagged Beams 0 0%
AMPLITUDE DATA Quantity Percentage
Number of Beams 149071680 100%
Number of Good Beams 139776437 93.76%
Number of Zero Beams 9295243 6.24%
Number of Flagged Beams 0 0%
SIDESCAN DATA Quantity Percentage
Number of Pixels 799211520 100%
Number of Good Pixels 460763515 57.65%
Number of Zero Pixels 0 0%
Number of Flagged Pixels 338448005 42.35%

Navigation Totals

Total Time: 353.5365 hours
Total Track Length: 4633.9208 km
Average Speed: 13.107 km/hr (7.0772 knots)

Cruise Bounds

Northern Extent: 14.565027
Southern Extent: 11.222526
Western Extent: 120.217026
Eastern Extent: 124.33029

Limits

Minimum Sonar Depth 4.04 Maximum Sonar Depth 7.04
Minimum Altitude 0 Maximum Altitude 11747.2002
Minimum Depth 8.65 Maximum Depth 11752.7402
Minimum Amplitude 0 Maximum Amplitude 16
Minimum Sidescan 0 Maximum Sidescan 54

File Information

Full Resolution Bathymetry as collected (raw): 198

Files File Size Description
0000_20090206_101315_melville.all.mb56.gz 23.78MB Simrad multibeam vendor format
0001_20090206_121316_melville.all.mb56.gz 20.95MB Simrad multibeam vendor format
0002_20090206_141316_melville.all.mb56.gz 15.11MB Simrad multibeam vendor format
0003_20090206_161316_melville.all.mb56.gz 14.49MB Simrad multibeam vendor format
0004_20090206_181316_melville.all.mb56.gz 15.32MB Simrad multibeam vendor format
0005_20090206_201316_melville.all.mb56.gz 17.55MB Simrad multibeam vendor format
0006_20090206_221316_melville.all.mb56.gz 19.72MB Simrad multibeam vendor format
0007_20090207_001316_melville.all.mb56.gz 19.62MB Simrad multibeam vendor format
0008_20090207_021316_melville.all.mb56.gz 23.52MB Simrad multibeam vendor format
0009_20090207_041317_melville.all.mb56.gz 27.99MB Simrad multibeam vendor format
0010_20090207_061317_melville.all.mb56.gz 23.42MB Simrad multibeam vendor format
0011_20090207_081317_melville.all.mb56.gz 45.49MB Simrad multibeam vendor format
0012_20090207_101318_melville.all.mb56.gz 30.56MB Simrad multibeam vendor format
0013_20090207_121318_melville.all.mb56.gz 24.75MB Simrad multibeam vendor format
0014_20090207_141319_melville.all.mb56.gz 25.62MB Simrad multibeam vendor format
0015_20090207_161319_melville.all.mb56.gz 23.81MB Simrad multibeam vendor format
0016_20090207_181320_melville.all.mb56.gz 50.94MB Simrad multibeam vendor format
0017_20090207_201321_melville.all.mb56.gz 24.28MB Simrad multibeam vendor format
0018_20090207_221322_melville.all.mb56.gz 26.13MB Simrad multibeam vendor format
0019_20090208_001323_melville.all.mb56.gz 21.58MB Simrad multibeam vendor format
0020_20090208_014554_melville.all.mb56.gz 10.6KB Simrad multibeam vendor format
0021_20090208_015005_melville.all.mb56.gz 22.31MB Simrad multibeam vendor format
0022_20090208_035005_melville.all.mb56.gz 47.67MB Simrad multibeam vendor format
0023_20090208_055006_melville.all.mb56.gz 24.16MB Simrad multibeam vendor format
0024_20090208_075006_melville.all.mb56.gz 28.00MB Simrad multibeam vendor format
0025_20090208_095007_melville.all.mb56.gz 25.33MB Simrad multibeam vendor format
0026_20090208_115007_melville.all.mb56.gz 27.18MB Simrad multibeam vendor format
0027_20090208_135009_melville.all.mb56.gz 25.49MB Simrad multibeam vendor format
0028_20090208_155010_melville.all.mb56.gz 30.80MB Simrad multibeam vendor format
0029_20090208_175012_melville.all.mb56.gz 37.37MB Simrad multibeam vendor format
0030_20090208_195012_melville.all.mb56.gz 32.61MB Simrad multibeam vendor format
0031_20090208_215014_melville.all.mb56.gz 31.54MB Simrad multibeam vendor format
0032_20090208_235015_melville.all.mb56.gz 17.67MB Simrad multibeam vendor format
0033_20090209_011943_melville.all.mb56.gz 20.17MB Simrad multibeam vendor format
0034_20090209_024842_melville.all.mb56.gz 26.82MB Simrad multibeam vendor format
0035_20090209_044843_melville.all.mb56.gz 26.77MB Simrad multibeam vendor format
0036_20090209_064844_melville.all.mb56.gz 34.06MB Simrad multibeam vendor format
0037_20090209_084844_melville.all.mb56.gz 50.43MB Simrad multibeam vendor format
0038_20090209_104844_melville.all.mb56.gz 61.07MB Simrad multibeam vendor format
0039_20090209_124846_melville.all.mb56.gz 58.88MB Simrad multibeam vendor format
0040_20090209_144847_melville.all.mb56.gz 44.07MB Simrad multibeam vendor format
0041_20090209_164847_melville.all.mb56.gz 31.17MB Simrad multibeam vendor format
0042_20090209_184847_melville.all.mb56.gz 31.06MB Simrad multibeam vendor format
0043_20090209_204847_melville.all.mb56.gz 46.29MB Simrad multibeam vendor format
0044_20090209_224848_melville.all.mb56.gz 25.83MB Simrad multibeam vendor format
0045_20090209_234405_melville.all.mb56.gz 61.03MB Simrad multibeam vendor format
0046_20090210_014405_melville.all.mb56.gz 46.82MB Simrad multibeam vendor format
0047_20090210_033257_melville.all.mb56.gz 42.33MB Simrad multibeam vendor format
0048_20090210_053257_melville.all.mb56.gz 30.08MB Simrad multibeam vendor format
0049_20090210_073257_melville.all.mb56.gz 24.99MB Simrad multibeam vendor format
0050_20090210_093257_melville.all.mb56.gz 29.70MB Simrad multibeam vendor format
0051_20090210_113257_melville.all.mb56.gz 30.08MB Simrad multibeam vendor format
0052_20090210_133258_melville.all.mb56.gz 35.48MB Simrad multibeam vendor format
0053_20090210_153258_melville.all.mb56.gz 23.54MB Simrad multibeam vendor format
0054_20090210_173258_melville.all.mb56.gz 25.04MB Simrad multibeam vendor format
0055_20090210_193301_melville.all.mb56.gz 26.03MB Simrad multibeam vendor format
0056_20090210_213301_melville.all.mb56.gz 29.34MB Simrad multibeam vendor format
0057_20090210_233302_melville.all.mb56.gz 17.40MB Simrad multibeam vendor format
0058_20090211_003648_melville.all.mb56.gz 1.26MB Simrad multibeam vendor format
0059_20090211_004224_melville.all.mb56.gz 26.2KB Simrad multibeam vendor format
0060_20090211_004309_melville.all.mb56.gz 32.65MB Simrad multibeam vendor format
0061_20090211_024309_melville.all.mb56.gz 27.26MB Simrad multibeam vendor format
0062_20090211_044310_melville.all.mb56.gz 26.85MB Simrad multibeam vendor format
0063_20090211_064312_melville.all.mb56.gz 28.47MB Simrad multibeam vendor format
0064_20090211_084315_melville.all.mb56.gz 33.84MB Simrad multibeam vendor format
0065_20090211_104318_melville.all.mb56.gz 31.25MB Simrad multibeam vendor format
0066_20090211_124321_melville.all.mb56.gz 25.08MB Simrad multibeam vendor format
0067_20090211_144313_melville.all.mb56.gz 26.46MB Simrad multibeam vendor format
0068_20090211_164315_melville.all.mb56.gz 31.54MB Simrad multibeam vendor format
0069_20090211_184316_melville.all.mb56.gz 32.75MB Simrad multibeam vendor format
0070_20090211_204317_melville.all.mb56.gz 22.25MB Simrad multibeam vendor format
0071_20090211_222338_melville.all.mb56.gz 25.99MB Simrad multibeam vendor format
0072_20090212_002338_melville.all.mb56.gz 30.69MB Simrad multibeam vendor format
0073_20090212_022339_melville.all.mb56.gz 43.99MB Simrad multibeam vendor format
0074_20090212_045635_melville.all.mb56.gz 38.57MB Simrad multibeam vendor format
0075_20090212_065637_melville.all.mb56.gz 26.51MB Simrad multibeam vendor format
0076_20090212_085637_melville.all.mb56.gz 35.36MB Simrad multibeam vendor format
0077_20090212_105638_melville.all.mb56.gz 2.09MB Simrad multibeam vendor format
0078_20090213_101110_melville.all.mb56.gz 21.60MB Simrad multibeam vendor format
0079_20090213_121111_melville.all.mb56.gz 35.34MB Simrad multibeam vendor format
0080_20090213_141111_melville.all.mb56.gz 29.26MB Simrad multibeam vendor format
0081_20090213_161111_melville.all.mb56.gz 24.54MB Simrad multibeam vendor format
0082_20090213_181111_melville.all.mb56.gz 36.13MB Simrad multibeam vendor format
0083_20090213_201112_melville.all.mb56.gz 25.22MB Simrad multibeam vendor format
0084_20090213_221113_melville.all.mb56.gz 33.56MB Simrad multibeam vendor format
0085_20090214_001113_melville.all.mb56.gz 30.81MB Simrad multibeam vendor format
0086_20090214_021113_melville.all.mb56.gz 28.01MB Simrad multibeam vendor format
0087_20090214_041114_melville.all.mb56.gz 35.92MB Simrad multibeam vendor format
0088_20090214_061114_melville.all.mb56.gz 23.18MB Simrad multibeam vendor format
0089_20090214_081115_melville.all.mb56.gz 34.19MB Simrad multibeam vendor format
0090_20090214_101116_melville.all.mb56.gz 33.73MB Simrad multibeam vendor format
0091_20090214_121117_melville.all.mb56.gz 26.44MB Simrad multibeam vendor format
0092_20090214_141118_melville.all.mb56.gz 2.59MB Simrad multibeam vendor format
0093_20090214_142338_melville.all.mb56.gz 35.46MB Simrad multibeam vendor format
0094_20090214_162339_melville.all.mb56.gz 23.48MB Simrad multibeam vendor format
0095_20090214_182339_melville.all.mb56.gz 35.61MB Simrad multibeam vendor format
0096_20090214_202339_melville.all.mb56.gz 36.74MB Simrad multibeam vendor format
0097_20090214_222340_melville.all.mb56.gz 33.30MB Simrad multibeam vendor format
0098_20090215_002342_melville.all.mb56.gz 23.39MB Simrad multibeam vendor format
0099_20090215_022343_melville.all.mb56.gz 5.98MB Simrad multibeam vendor format
0100_20090215_030212_melville.all.mb56.gz 21.26MB Simrad multibeam vendor format
0101_20090215_050212_melville.all.mb56.gz 32.75MB Simrad multibeam vendor format
0102_20090215_070212_melville.all.mb56.gz 33.52MB Simrad multibeam vendor format
0103_20090215_090212_melville.all.mb56.gz 35.40MB Simrad multibeam vendor format
0104_20090215_110213_melville.all.mb56.gz 46.35MB Simrad multibeam vendor format
0105_20090215_130213_melville.all.mb56.gz 73.22MB Simrad multibeam vendor format
0106_20090215_150214_melville.all.mb56.gz 60.46MB Simrad multibeam vendor format
0107_20090215_165330_melville.all.mb56.gz 40.38MB Simrad multibeam vendor format
0108_20090215_185330_melville.all.mb56.gz 30.13MB Simrad multibeam vendor format
0109_20090215_205331_melville.all.mb56.gz 32.00MB Simrad multibeam vendor format
0110_20090215_225331_melville.all.mb56.gz 74.67MB Simrad multibeam vendor format
0111_20090216_005332_melville.all.mb56.gz 37.68MB Simrad multibeam vendor format
0112_20090216_025333_melville.all.mb56.gz 73.58MB Simrad multibeam vendor format
0113_20090216_045334_melville.all.mb56.gz 6.30MB Simrad multibeam vendor format
0114_20090216_050431_melville.all.mb56.gz 36.30MB Simrad multibeam vendor format
0115_20090216_070432_melville.all.mb56.gz 74.45MB Simrad multibeam vendor format
0116_20090216_090432_melville.all.mb56.gz 65.94MB Simrad multibeam vendor format
0117_20090216_110433_melville.all.mb56.gz 24.21MB Simrad multibeam vendor format
0118_20090216_130433_melville.all.mb56.gz 37.44MB Simrad multibeam vendor format
0119_20090216_150433_melville.all.mb56.gz 25.32MB Simrad multibeam vendor format
0120_20090216_170434_melville.all.mb56.gz 19.17MB Simrad multibeam vendor format
0121_20090216_190435_melville.all.mb56.gz 24.33MB Simrad multibeam vendor format
0122_20090216_210436_melville.all.mb56.gz 39.98MB Simrad multibeam vendor format
0123_20090216_230437_melville.all.mb56.gz 52.10MB Simrad multibeam vendor format
0124_20090217_010438_melville.all.mb56.gz 69.96MB Simrad multibeam vendor format
0125_20090217_030439_melville.all.mb56.gz 1.47MB Simrad multibeam vendor format
0126_20090217_030905_melville.all.mb56.gz 51.87MB Simrad multibeam vendor format
0127_20090217_050906_melville.all.mb56.gz 81.50MB Simrad multibeam vendor format
0128_20090217_070905_melville.all.mb56.gz 77.40MB Simrad multibeam vendor format
0129_20090217_090906_melville.all.mb56.gz 92.45MB Simrad multibeam vendor format
0130_20090217_110908_melville.all.mb56.gz 78.86MB Simrad multibeam vendor format
0131_20090217_130908_melville.all.mb56.gz 88.19MB Simrad multibeam vendor format
0132_20090217_150908_melville.all.mb56.gz 80.99MB Simrad multibeam vendor format
0133_20090217_170909_melville.all.mb56.gz 86.66MB Simrad multibeam vendor format
0134_20090217_190910_melville.all.mb56.gz 15.89MB Simrad multibeam vendor format
0135_20090217_193358_melville.all.mb56.gz 77.16MB Simrad multibeam vendor format
0136_20090217_213358_melville.all.mb56.gz 79.41MB Simrad multibeam vendor format
0137_20090217_233358_melville.all.mb56.gz 81.29MB Simrad multibeam vendor format
0138_20090218_013400_melville.all.mb56.gz 85.52MB Simrad multibeam vendor format
0139_20090218_033400_melville.all.mb56.gz 78.27MB Simrad multibeam vendor format
0140_20090218_053400_melville.all.mb56.gz 89.99MB Simrad multibeam vendor format
0141_20090218_073401_melville.all.mb56.gz 78.09MB Simrad multibeam vendor format
0142_20090218_093401_melville.all.mb56.gz 71.78MB Simrad multibeam vendor format
0143_20090218_113402_melville.all.mb56.gz 76.16MB Simrad multibeam vendor format
0144_20090218_133402_melville.all.mb56.gz 70.28MB Simrad multibeam vendor format
0145_20090218_153403_melville.all.mb56.gz 72.36MB Simrad multibeam vendor format
0146_20090218_173404_melville.all.mb56.gz 74.51MB Simrad multibeam vendor format
0147_20090218_193404_melville.all.mb56.gz 70.12MB Simrad multibeam vendor format
0148_20090218_213405_melville.all.mb56.gz 74.39MB Simrad multibeam vendor format
0149_20090218_233406_melville.all.mb56.gz 33.38MB Simrad multibeam vendor format
0150_20090219_003609_melville.all.mb56.gz 8.63MB Simrad multibeam vendor format
0151_20090219_005329_melville.all.mb56.gz 61.62MB Simrad multibeam vendor format
0152_20090219_025329_melville.all.mb56.gz 58.49MB Simrad multibeam vendor format
0153_20090219_045330_melville.all.mb56.gz 64.24MB Simrad multibeam vendor format
0154_20090219_065330_melville.all.mb56.gz 72.74MB Simrad multibeam vendor format
0155_20090219_085331_melville.all.mb56.gz 5.75MB Simrad multibeam vendor format
0156_20090219_090434_melville.all.mb56.gz 61.24MB Simrad multibeam vendor format
0157_20090219_110435_melville.all.mb56.gz 58.95MB Simrad multibeam vendor format
0158_20090219_130437_melville.all.mb56.gz 9.42MB Simrad multibeam vendor format
0159_20090219_192149_melville.all.mb56.gz 207.5KB Simrad multibeam vendor format
0160_20090219_192350_melville.all.mb56.gz 20.20MB Simrad multibeam vendor format
0161_20090219_200742_melville.all.mb56.gz 9.0KB Simrad multibeam vendor format
0162_20090219_200742_melville.all.mb56.gz 51.12MB Simrad multibeam vendor format
0163_20090219_220743_melville.all.mb56.gz 67.72MB Simrad multibeam vendor format
0164_20090220_000744_melville.all.mb56.gz 72.88MB Simrad multibeam vendor format
0165_20090220_020745_melville.all.mb56.gz 5.27MB Simrad multibeam vendor format
0165_20090220_021357_melville.all.mb56.gz 77.36MB Simrad multibeam vendor format
0166_20090220_041359_melville.all.mb56.gz 39.36MB Simrad multibeam vendor format
0167_20090220_052917_melville.all.mb56.gz 76.04MB Simrad multibeam vendor format
0168_20090220_072917_melville.all.mb56.gz 35.13MB Simrad multibeam vendor format
0169_20090220_082716_melville.all.mb56.gz 58.46MB Simrad multibeam vendor format
0170_20090220_102716_melville.all.mb56.gz 50.33MB Simrad multibeam vendor format
0171_20090220_115637_melville.all.mb56.gz 75.91MB Simrad multibeam vendor format
0172_20090220_135637_melville.all.mb56.gz 69.31MB Simrad multibeam vendor format
0173_20090220_155638_melville.all.mb56.gz 11.24MB Simrad multibeam vendor format
0174_20090221_051922_melville.all.mb56.gz 63.70MB Simrad multibeam vendor format
0175_20090221_071923_melville.all.mb56.gz 49.90MB Simrad multibeam vendor format
0176_20090221_091923_melville.all.mb56.gz 11.54MB Simrad multibeam vendor format
0177_20090221_094603_melville.all.mb56.gz 72.40MB Simrad multibeam vendor format
0178_20090221_114603_melville.all.mb56.gz 26.18MB Simrad multibeam vendor format
0179_20090221_125605_melville.all.mb56.gz 69.66MB Simrad multibeam vendor format
0180_20090221_145605_melville.all.mb56.gz 57.46MB Simrad multibeam vendor format
0181_20090221_165606_melville.all.mb56.gz 61.90MB Simrad multibeam vendor format
0182_20090221_185606_melville.all.mb56.gz 52.62MB Simrad multibeam vendor format
0183_20090221_205607_melville.all.mb56.gz 52.32MB Simrad multibeam vendor format
0184_20090221_225608_melville.all.mb56.gz 38.78MB Simrad multibeam vendor format
0185_20090222_005609_melville.all.mb56.gz 25.55MB Simrad multibeam vendor format
0186_20090222_025610_melville.all.mb56.gz 23.45MB Simrad multibeam vendor format
0187_20090222_045610_melville.all.mb56.gz 21.49MB Simrad multibeam vendor format
0188_20090222_065610_melville.all.mb56.gz 26.74MB Simrad multibeam vendor format
0189_20090222_085611_melville.all.mb56.gz 1.15MB Simrad multibeam vendor format
0190_20090222_090151_melville.all.mb56.gz 32.99MB Simrad multibeam vendor format
0191_20090222_110151_melville.all.mb56.gz 35.53MB Simrad multibeam vendor format
0192_20090222_130151_melville.all.mb56.gz 37.37MB Simrad multibeam vendor format
0193_20090222_150152_melville.all.mb56.gz 35.50MB Simrad multibeam vendor format
0194_20090222_170152_melville.all.mb56.gz 59.66MB Simrad multibeam vendor format
0195_20090222_190153_melville.all.mb56.gz 104.00MB Simrad multibeam vendor format
0196_20090222_210154_melville.all.mb56.gz 130.26MB Simrad multibeam vendor format

Metadata Files: 3

Files File Size Description
MV0902_Multibeam.xml NGDC created ISO metadata
em120_bag_info.tar.gz 9.6KB Additional cruise information
xbt_bag_info.tar.gz 1.1KB Additional cruise information

Ancillary Files: 1

Files File Size Description
xbt.tar.gz 47.0KB Expendable Bathythermograph (XBT) data